When you browse on this site, cookies collect data to enhance your experience and personalize the content and advertising you see.
Visit our Privacy Policy to learn more. By continuing to use the site, you agree to this use of cookies and data.
  • In Denmark
  • List of Countries
  • For 7 days
  • Water Temperature
  • Weather Map
  • Weather Widgets
  • user-avatar
    Login

    Hourly Weather Valladolid

    Today, 7 December, Saturday

    Time Temperature Precipitation Wind Pressure Humidity
    00:00 +5°C° 0 mm 0 mps 705 mmHg 86%
    01:00 +5°C° 0 mm 0 mps 705 mmHg 86%
    02:00 +5°C° 0 mm 0 mps 704 mmHg 87%
    03:00 +4°C° 0 mm 0 mps 704 mmHg 87%
    04:00 +4°C° 0 mm 0 mps 704 mmHg 87%
    05:00 +4°C° 0 mm 0 mps 704 mmHg 88%
    06:00 +4°C° 0 mm 0 mps 704 mmHg 88%
    07:00 +5°C° 0 mm 0 mps 705 mmHg 86%
    08:00 +5°C° 0 mm 0 mps 705 mmHg 84%
    09:00 +6°C° 0 mm 0 mps 705 mmHg 83%
    10:00 +8°C° 0 mm 1 mps 705 mmHg 77%
    11:00 +10°C° 0 mm 1 mps 705 mmHg 71%
    12:00 +11°C° 0 mm 1 mps 705 mmHg 65%
    13:00 +11°C° 0 mm 1 mps 705 mmHg 63%
    14:00 +12°C° 0 mm 1 mps 705 mmHg 62%
    15:00 +12°C° 0 mm 1 mps 704 mmHg 61%
    16:00 +11°C° 0 mm 1 mps 705 mmHg 67%
    17:00 +9°C° 0 mm 1 mps 705 mmHg 73%
    18:00 +8°C° 0 mm 1 mps 705 mmHg 80%
    19:00 +8°C° 0 mm 1 mps 705 mmHg 80%
    20:00 +8°C° 0 mm 1 mps 706 mmHg 81%
    21:00 +7°C° 0 mm 1 mps 706 mmHg 82%
    22:00 +7°C° 0 mm 1 mps 706 mmHg 83%
    23:00 +7°C° 0 mm 1 mps 706 mmHg 83%

    Tomorrow, 8 December, Sunday

    Time Temperature Precipitation Wind Pressure Humidity
    00:00 +7°C° 0 mm 1 mps 706 mmHg 84%
    01:00 +5°C° 0 mm 2 mps 706 mmHg 85%
    02:00 +5°C° 0 mm 2 mps 706 mmHg 87%
    03:00 +5°C° 0 mm 2 mps 705 mmHg 88%
    04:00 +4°C° 0 mm 2 mps 705 mmHg 89%
    05:00 +4°C° 0 mm 2 mps 705 mmHg 90%
    06:00 +4°C° 0 mm 2 mps 705 mmHg 90%
    07:00 +5°C° 0 mm 2 mps 705 mmHg 88%
    08:00 +5°C° 0 mm 2 mps 706 mmHg 86%
    09:00 +6°C° 0 mm 2 mps 706 mmHg 84%
    10:00 +8°C° 0 mm 3 mps 706 mmHg 82%
    11:00 +9°C° 0 mm 3 mps 706 mmHg 79%
    12:00 +11°C° 0 mm 3 mps 706 mmHg 77%
    13:00 +10°C° 0.9 mm 3 mps 706 mmHg 84%
    14:00 +10°C° 0.9 mm 3 mps 705 mmHg 90%
    15:00 +9°C° 0.9 mm 3 mps 705 mmHg 97%
    16:00 +9°C° 0.3 mm 3 mps 705 mmHg 97%
    17:00 +9°C° 0.3 mm 3 mps 706 mmHg 97%
    18:00 +9°C° 0.3 mm 3 mps 706 mmHg 97%
    19:00 +9°C° 0 mm 2 mps 706 mmHg 97%
    20:00 +9°C° 0 mm 2 mps 707 mmHg 97%
    21:00 +8°C° 0 mm 2 mps 707 mmHg 97%
    22:00 +8°C° 0 mm 2 mps 707 mmHg 96%
    23:00 +7°C° 0 mm 2 mps 707 mmHg 96%

    Day after tomorrow, 9 December, Monday

    Time Temperature Precipitation Wind Pressure Humidity
    00:00 +7°C° 0 mm 2 mps 707 mmHg 95%
    01:00 +6°C° 0 mm 2 mps 708 mmHg 95%
    02:00 +6°C° 0 mm 2 mps 708 mmHg 94%
    03:00 +5°C° 0 mm 2 mps 708 mmHg 93%
    04:00 +5°C° 0 mm 2 mps 708 mmHg 94%
    05:00 +4°C° 0 mm 3 mps 708 mmHg 95%
    06:00 +4°C° 0 mm 3 mps 708 mmHg 96%
    07:00 +5°C° 0 mm 2 mps 709 mmHg 94%
    08:00 +5°C° 0 mm 2 mps 709 mmHg 92%
    09:00 +5°C° 0 mm 2 mps 710 mmHg 89%
    10:00 +7°C° 0 mm 3 mps 710 mmHg 77%
    11:00 +8°C° 0 mm 3 mps 710 mmHg 65%
    12:00 +10°C° 0 mm 3 mps 710 mmHg 52%
    13:00 +10°C° 0 mm 3 mps 710 mmHg 50%
    14:00 +10°C° 0 mm 2 mps 710 mmHg 49%
    15:00 +12°C° 0 mm 2 mps 709 mmHg 47%
    16:00 +10°C° 0 mm 1 mps 710 mmHg 51%
    17:00 +9°C° 0 mm 1 mps 710 mmHg 55%
    18:00 +6°C° 0 mm 0 mps 710 mmHg 59%
    19:00 +6°C° 0 mm 0 mps 710 mmHg 59%
    20:00 +6°C° 0 mm 0 mps 710 mmHg 60%
    21:00 +5°C° 0 mm 0 mps 710 mmHg 60%
    22:00 +5°C° 0 mm 0 mps 710 mmHg 61%
    23:00 +5°C° 0 mm 0 mps 710 mmHg 63%

    10 December, Tuesday

    Time Temperature Precipitation Wind Pressure Humidity
    00:00 +4°C° 0 mm 0 mps 709 mmHg 64%
    01:00 +4°C° 0 mm 0 mps 709 mmHg 65%
    02:00 +4°C° 0 mm 0 mps 709 mmHg 66%
    03:00 +3°C° 0 mm 0 mps 709 mmHg 67%
    04:00 +3°C° 0 mm 0 mps 708 mmHg 68%
    05:00 +3°C° 0 mm 0 mps 708 mmHg 68%
    06:00 +3°C° 0 mm 0 mps 708 mmHg 69%
    07:00 +4°C° 0 mm 0 mps 708 mmHg 67%
    08:00 +5°C° 0 mm 0 mps 708 mmHg 65%
    09:00 +5°C° 0 mm 0 mps 708 mmHg 63%
    10:00 +8°C° 0 mm 1 mps 708 mmHg 58%
    11:00 +9°C° 0 mm 1 mps 708 mmHg 53%
    12:00 +10°C° 0 mm 2 mps 707 mmHg 48%
    13:00 +10°C° 0 mm 2 mps 707 mmHg 49%
    14:00 +10°C° 0 mm 2 mps 706 mmHg 49%
    15:00 +10°C° 0 mm 2 mps 706 mmHg 50%
    16:00 +9°C° 0 mm 2 mps 706 mmHg 53%
    17:00 +8°C° 0 mm 2 mps 706 mmHg 56%
    18:00 +7°C° 0 mm 2 mps 705 mmHg 59%
    19:00 +6°C° 0 mm 2 mps 705 mmHg 59%
    20:00 +6°C° 0 mm 2 mps 705 mmHg 60%
    21:00 +4°C° 0 mm 3 mps 705 mmHg 61%
    22:00 +4°C° 0 mm 3 mps 705 mmHg 60%
    23:00 +4°C° 0 mm 3 mps 705 mmHg 60%

    11 December, Wednesday

    Time Temperature Precipitation Wind Pressure Humidity
    00:00 +4°C° 0 mm 3 mps 705 mmHg 59%
    01:00 +4°C° 0 mm 3 mps 705 mmHg 58%
    02:00 +4°C° 0 mm 3 mps 704 mmHg 58%
    03:00 +4°C° 0 mm 3 mps 704 mmHg 57%
    04:00 +4°C° 0.3 mm 3 mps 704 mmHg 64%
    05:00 +4°C° 0.3 mm 3 mps 704 mmHg 72%
    06:00 +4°C° 0.3 mm 3 mps 704 mmHg 79%
    07:00 +4°C° 0.2 mm 3 mps 705 mmHg 81%
    08:00 +4°C° 0.2 mm 3 mps 705 mmHg 83%
    09:00 +4°C° 0.2 mm 3 mps 706 mmHg 85%
    10:00 +5°C° 0 mm 3 mps 706 mmHg 81%
    11:00 +7°C° 0 mm 3 mps 707 mmHg 77%
    12:00 +8°C° 0 mm 3 mps 707 mmHg 72%
    13:00 +7°C° 0 mm 4 mps 707 mmHg 69%
    14:00 +7°C° 0 mm 4 mps 707 mmHg 66%
    15:00 +7°C° 0 mm 4 mps 707 mmHg 63%
    16:00 +6°C° 0 mm 4 mps 707 mmHg 66%
    17:00 +4°C° 0 mm 4 mps 707 mmHg 70%
    18:00 +3°C° 0 mm 4 mps 707 mmHg 73%
    19:00 +3°C° 0 mm 3 mps 708 mmHg 74%
    20:00 +2°C° 0 mm 3 mps 708 mmHg 76%
    21:00 +2°C° 0 mm 3 mps 708 mmHg 78%
    22:00 +1°C° 0 mm 3 mps 708 mmHg 79%
    23:00 +2°C° 0 mm 2 mps 708 mmHg 80%

    12 December, Thursday

    Time Temperature Precipitation Wind Pressure Humidity
    00:00 +2°C° 0 mm 2 mps 708 mmHg 82%
    01:00 +2°C° 0 mm 2 mps 707 mmHg 83%
    02:00 +1°C° 0 mm 2 mps 707 mmHg 85%
    03:00 0°C° 0 mm 3 mps 707 mmHg 87%
    04:00 0°C° 0 mm 3 mps 706 mmHg 89%
    05:00 0°C° 0 mm 3 mps 706 mmHg 91%
    06:00 -1°C° 0 mm 3 mps 706 mmHg 93%
    07:00 -1°C° 0 mm 4 mps 706 mmHg 92%
    08:00 0°C° 0 mm 4 mps 706 mmHg 91%
    09:00 +1°C° 0 mm 5 mps 706 mmHg 90%
    10:00 +2°C° 0 mm 6 mps 706 mmHg 84%
    11:00 +4°C° 0 mm 7 mps 706 mmHg 79%
    12:00 +5°C° 0 mm 8 mps 705 mmHg 74%
    13:00 +5°C° 0 mm 8 mps 705 mmHg 74%
    14:00 +5°C° 0 mm 8 mps 704 mmHg 75%
    15:00 +5°C° 0 mm 9 mps 703 mmHg 75%
    16:00 +5°C° 0 mm 9 mps 703 mmHg 78%
    17:00 +5°C° 0 mm 8 mps 703 mmHg 81%
    18:00 +5°C° 0 mm 8 mps 703 mmHg 84%
    19:00 +5°C° 0 mm 8 mps 702 mmHg 85%
    20:00 +5°C° 0 mm 9 mps 702 mmHg 86%
    21:00 +6°C° 0 mm 9 mps 702 mmHg 88%
    22:00 +6°C° 0 mm 9 mps 702 mmHg 88%
    23:00 +6°C° 0 mm 10 mps 702 mmHg 89%
    Show more